Cosmos 1378 - Orbit

View from above orbital plane
View from above orbital plane
View from above satellite
View from above satellite

Ground track
Ground track

The orbit data is extracted from the following two-line orbital elements,

1 13271U 82059A   13141.85037162  .00003922  00000-0  23048-3 0  2102
2 13271 082.4744 249.7917 0009663 064.8816 082.7062 15.11395312684409
Epoch (UTC): 21 May 2013 20:24:32
Eccentricity: 0.0009663
inclination: 82.4744°
perigee height: 525 km
apogee height: 538 km
right ascension of ascending node: 249.7917°
argument of perigee: 64.8816°
revolutions per day: 15.11395312
mean anomaly at epoch: 82.7062°
orbit number at epoch: 68440

The dashed part of the orbit path shows where the satellite is in the earth's shadow,  

Developed and maintained by Chris Peat, Heavens-Above GmbH. Please read the updated FAQ before sending e-mail. Imprint. DLR